Погода в Холме

Погода в Холме : погода сейчас, прогноз погоды и архив. Всё, что Вы хотите узнать о погоде в Холме!

Поиск расширенной информации на нашем сайте:

Другие новости

Новости СМИ2

Главная страница сайта

Новости сайта

03.07.2017

Напоминаем, что на нашем специализированном сайте Метеоцентр.Азия вы можете получить высокодетализированные автоматические прогнозы погоды по пунктам России, СНГ и мира в авиационном формате (включающие направление и скорость ветра, видимость, явления погоды, количество и форму облачности, нижнюю и верхнюю границу облачности).


Погода в Холме - сегодня

Время (UTC), дата Ветер
(°,м/с) 
Видим.   Явления Облачность Т
(°С)
Тd
(°С)
f(%) Тe
(°С)
Pmin
(гПа)
dP
(гПа)
Po
(мм)
O2
(г/м3)
Тmin Tmax R s Состояние
почвы
09 19.09.17 230 (ЮЗ) 5-10{13}  20000 м  {ливн. осадки}  10/10 660 м 
[Sc diur, vesp]
+11.3 +7.6 78 +10  1007.6  4.9  749  289           
12 19.09.17 220 (ЮЗ) 4{12}  20000 м  {ливн. осадки}  9/9 700 м 
[Sc diur, vesp]
+13 +8.3 73 +13  1011  3.4  752  288           
15 19.09.17 220 (ЮЗ) 3{10}  20000 м  {ливн. осадки}  9/3 600 м кучево-дожд., средняя 
[Cb cap|Ac trans]
+11.9 +9.3 84 +12  1013.7  2.7  754  289         
18 19.09.17 190 (Ю) 20000 м  {ливн. осадки}  8/0 средняя 
[Ac trans]
+10.4 +8.4 87 +11  1015.6  1.8  755  292    +13.9  0.3     
21 19.09.17 180 (Ю) 20000 м    6/0 средняя 
[Ac trans]
+9.7 +7.9 89 +9  1016.9  1.3  756  293           
00 20.09.17 190 (Ю) 20000 м    3/0 средняя 
[Ac trans]
+8.3 +7.6 95 +8  1018.3  1.3  757  295           
03 20.09.17 190 (Ю) 20000 м    3/0 средняя 
[Ac trans]
+6.6 +6.1 97 +8  1019.6  1.2  758  297  +6.6         
06 20.09.17 180 (Ю) 20000 м    3/0 средняя 
[Ac trans]
+9.8 +8.3 90 +11  1021  1.5  759  294  +6.4        мокрая 
09 20.09.17 140 (ЮВ) 20000 м    8/3 600 м средняя, верхняя 
[Sc|Ac trans|Ci fib]
+13.6 +9.5 76 +15  1022.1  1.2  760  290           
12 20.09.17 170 (Ю) 20000 м    9/3 600 м средняя, верхняя 
[Cu hum|Ac trans|Ci fib]
+15.9 +9.2 64 +17  1022.5  0.5  761  288           
15 20.09.17 тихо ()   20000 м    9/0 средняя, верхняя 
[Ac trans|Ci sp]
+14.6 +11.6 82 +18  1022.8  0.2  761  289           
18 20.09.17 тихо ()   20000 м    9/0 средняя 
[Ac trans]
+10.6 +9.9 95 +11  1023.8  0.9  761  294    +16.3       
21 20.09.17 060 (СВ) 20000 м    10/0 средняя 
[Ac As]
+9.6 +9.1 97 +11  1024.6  0.8  762  295           
00 21.09.17 050 (СВ) 10 км    10/0 средняя 
[Ac As]
+10.6 +10.1 97 +13  1025  0.4  762  294           
03 21.09.17 040 (СВ) 10 км    8/0 средняя 
[Ac trans]
+10.7 +9.4 92 +12  1025  762  294  +9.4         
06 21.09.17 050 (СВ) 20000 м    6/0 средняя, верхняя 
[Ac trans|Ci fib]
+12 +9.5 85 +12  1025  762  293  +9.4        влажная 
09 21.09.17 090 (В) 5{10}  20000 м    3/0 верхняя 
[Ci sp]
+17.9 +8.6 54 +18  1025.2  0.3  763  287           
12 21.09.17 070 (В) 4{11}  20000 м    9/0 средняя, верхняя 
[Ac lent|Ci sp]
+17.2 +9 58 +17  1024.3  -0.9  762  287           
15 21.09.17 050 (СВ) 4{11}  20000 м  {ливн. осадки}  9/4 600 м кучево-дожд., средняя, верхняя 
[Cb cap|Ac trans|Ci sp]
+15.7 +8.9 64 +16  1023.9  -0.4  762  289      0.0     
18 21.09.17 070 (В) 10 км  слаб. ливневой дождь  10/8 600 м кучево-дожд., средняя 
[Cb cap|Ac As]
+13.6 +10.1 79 +14  1024.6  0.6  762  291    +18.2  0.0     
21 21.09.17 080 (В) 4{10}  20000 м  {ливн. осадки}  10/4 600 м кучево-дожд., средняя 
[Cb cap|Ac As]
+13.5 +9.2 75 +13  1024.6  -0.1  762  291           
00 22.09.17 080 (В) 20000 м  {ливн. осадки}  10/0 средняя 
[Ac As]
+12.8 +7.8 72 +12  1026.1  1.4  763  292           
03 22.09.17 070 (В) 20000 м    8/0 средняя, верхняя 
[Ac lent|Ci sp]
+11.1 +7.2 77 +11  1026.4  0.2  763  294  +11.1    0.3     
06 22.09.17 090 (В) 20000 м    4/0 средняя 
[Ac trans]
+13.2 +7.1 66 +13  1027.1  0.7  764  292  +11.1    0.3    влажная 
09 22.09.17 090 (В) 4{10}  20000 м    3/0 средняя 
[Ac lent]
+16.8 +7.4 54 +17  1026.8  0.1  764  289           
Время (UTC), дата Ветер
(°,м/с) 
Видим.   Явления Облачность Т
(°С)
Тd
(°С)
f(%) Тe
(°С)
Pmin
(гПа)
dP
(гПа)
Po
(мм)
O2
(г/м3)
Тmin Tmax R s Состояние
почвы

Для получения пояснительной информации подведите курсор к названию столбца.

ПОГОДА в Холме - архив

Всё, что Вы хотите узнать о погоде в Холме - удобно и подробно!

Выберите нужную дату (начиная с 1 января 2015* года) и нажмите кнопку "Найти".
Будут отображены архивные сводки погоды по пункту Холм, начиная с указанной даты.


Отображать данные в формате CSV (для использования в таблицах Excel)


Внимание! Наш архив погоды предназначен исключительно для личного некоммерческого использования в познавательных целях. Если Вам необходимы официальные справки о состоянии погоды (для производственных, юридических, коммерческих и т.п. целей), обращайтесь в органы Росгидромета.

*Примечание: данная дата относится к архиву по метеостанциям СССР (Россия, СНГ, Балтия).
Архив по метеостанциям Зарубежной Европы и Азии (кроме Китая) хранится 10 дней, по другим регионам земного шара (Китай, Африка, Америка, Австралия, Океания) - 1 день.

Холм - район местоположения метеостанции


Название, широта, долгота, высота метеостанции:
Холм 57.2°ш. 31.2°д. 71 м над ур. моря [Российская Федерация]

Дополнительная информация

В oтличие oт бoльшинства пoгoдных сайтoв мы публикуем пoдрoбную метеoинфoрмацию в детальнoм прoфессиoнальнoм фoрмате.

Характеристики температуры и влажнoсти вoздуха измеряются на высoте 2 м в тени вдали oт зданий и деревьев.
Скoрoсть ветра измеряется на высoте 10 м (на урoвне рoста челoвека скoрoсть ветра ниже в 1.5-2 раза). Если метеoстанция нахoдится в гoрoде или в лесу, тo скoрoсть ветра занижена на 2-4 м/с пo сравнению с oткрытым местoм. Скoрoсть ветра над акватoриями крупных рек и oзёр, а также на вершинах хoлмoв на 2-5 м/с выше, чем в oбычных услoвиях.
Атмoсфернoе давление в разных тoчках местнoсти мoжет значительнo oтличаться oт давления на метеoстанции, в зависимoсти oт услoвий рельефа (при пoдъёме на 10 м давление пoнижается примернo на 1 мм рт.ст.).